Oakland, CA

7:23 PM PST on January 20, 2018 (GMT -0800)
Metro Oakland International

Weather History for KOAK - February, 2015

Change the Weather History Date:

Friday, February 27, 2015

  Actual Average Record
Temperature  
Mean Temperature 56 °F 53 °F  
Max Temperature 63 °F 61 °F 73 °F (1986)
Min Temperature 48 °F 45 °F 31 °F (1962)
Degree Days  
Heating Degree Days 9 12  
Month to date heating degree days 234 350  
Since 1 July heating degree days 1296 2009  
Cooling Degree Days 0 0  
Month to date cooling degree days 0 0  
Year to date cooling degree days 0 0  
Growing Degree Days 6 (Base 50)    
Moisture  
Dew Point 46 °F    
Average Humidity 68    
Maximum Humidity 80    
Minimum Humidity 56    
Precipitation  
Precipitation 0.00 in 0.15 in 1.12 in (1973)
Month to date precipitation 1.93 3.80  
Year to date precipitation 1.93 7.79  
Sea Level Pressure  
Sea Level Pressure 29.83 in    
Wind  
Wind Speed 19 mph (WNW)    
Max Wind Speed 38 mph    
Max Gust Speed 45 mph    
Visibility 10 miles    
Events      
T = Trace of Precipitation, MM = Missing Value Source: NWS Daily Summary

Daily Weather History Graph

Daily Weather History Graph

Search for Another Location

Airport or City:

Trip Planner

Search our weather history database for the weather conditions in past years. The results will help you decide how hot, cold, wet, or windy it might be!

Date:

Astronomy

Feb. 27, 2015 Rise Set
Actual Time 6:43 AM PST 6:00 PM PST
Civil Twilight 6:16 AM PST 6:26 PM PST
Nautical Twilight 5:46 AM PST 6:57 PM PST
Astronomical Twilight 5:16 AM PST 7:27 PM PST
Moon 12:58 PM PST (2/27) 2:35 AM PST (2/27)
Length of Visible Light 12h 09m
Length of Day
11h 17m
Waxing Gibbous, 71% of the Moon is Illuminated
Feb 27
Waxing Gibbous
Mar 5
Full
Mar 13
Last Quarter
Mar 20
New
Mar 27
First Quarter

Hourly Weather History & Observations

Time (PST) Temp. Dew Point Humidity Pressure Visibility Wind Dir Wind Speed Gust Speed Precip Events Conditions
12:53 AM 55.0 °F 46.9 °F 74% 29.92 in 10.0 mi NW 8.1 mph - N/A   Clear
1:53 AM 55.0 °F 48.0 °F 77% 29.91 in 10.0 mi NW 6.9 mph - N/A   Clear
2:53 AM 54.0 °F 46.9 °F 77% 29.90 in 10.0 mi NNW 6.9 mph - N/A   Partly Cloudy
3:53 AM 55.0 °F 48.0 °F 77% 29.90 in 10.0 mi West 12.7 mph - N/A   Partly Cloudy
4:53 AM 53.1 °F 46.9 °F 80% 29.90 in 10.0 mi NNW 6.9 mph - N/A   Partly Cloudy
5:53 AM 50.0 °F 44.6 °F 82% 29.90 in 10.0 mi Calm Calm - N/A   Partly Cloudy
6:53 AM 55.0 °F 48.0 °F 77% 29.88 in 10.0 mi West 9.2 mph - N/A   Mostly Cloudy
7:53 AM 57.0 °F 48.9 °F 74% 29.88 in 10.0 mi WNW 8.1 mph - N/A   Scattered Clouds
8:53 AM 57.9 °F 50.0 °F 75% 29.89 in 10.0 mi WNW 18.4 mph - N/A   Scattered Clouds
9:53 AM 59.0 °F 50.0 °F 72% 29.89 in 10.0 mi West 15.0 mph - N/A   Mostly Cloudy
10:53 AM 61.0 °F 50.0 °F 67% 29.88 in 10.0 mi West 18.4 mph - N/A   Scattered Clouds
11:53 AM 61.0 °F 48.0 °F 62% 29.86 in 10.0 mi West 19.6 mph - N/A   Partly Cloudy
12:53 PM 62.1 °F 46.0 °F 56% 29.83 in 10.0 mi West 24.2 mph - N/A   Scattered Clouds
1:53 PM 61.0 °F 46.0 °F 58% 29.80 in 10.0 mi West 26.5 mph - N/A   Partly Cloudy
2:53 PM 61.0 °F 46.0 °F 58% 29.80 in 10.0 mi West 28.8 mph 33.4 mph N/A   Partly Cloudy
3:53 PM 59.0 °F 46.0 °F 62% 29.78 in 10.0 mi West 29.9 mph 39.1 mph N/A   Partly Cloudy
4:53 PM 57.0 °F 46.0 °F 67% 29.76 in 10.0 mi West 29.9 mph 38.0 mph N/A   Partly Cloudy
5:53 PM 55.0 °F 45.0 °F 69% 29.75 in 10.0 mi West 31.1 mph 39.1 mph N/A   Scattered Clouds
6:53 PM 54.0 °F 45.0 °F 72% 29.74 in 10.0 mi West 33.4 mph - N/A   Scattered Clouds
7:53 PM 54.0 °F 44.1 °F 69% 29.75 in 10.0 mi WNW 32.2 mph 39.1 mph N/A   Scattered Clouds
8:53 PM 53.1 °F 44.1 °F 71% 29.75 in 10.0 mi West 25.3 mph - N/A   Scattered Clouds
9:53 PM 53.1 °F 42.1 °F 66% 29.76 in 10.0 mi WNW 20.7 mph 27.6 mph N/A   Scattered Clouds
10:53 PM 53.1 °F 43.0 °F 69% 29.75 in 10.0 mi WNW 16.1 mph 24.2 mph N/A   Scattered Clouds
11:53 PM 53.1 °F 43.0 °F 69% 29.74 in 10.0 mi West 17.3 mph - N/A   Partly Cloudy